Cloud_Cover
0 0 0 0 2 97 45 38 52 100 100 6 9 48 16 16 45 12 5 5 21 95 100 68 67 98 99 100 100 100 77 96 50 97 100 100 97 86 5 5 0 0 0 0 0 0 0 0 0
0 0 0 0 5 29 75 46 7 6 100 23 2 100 13 0 8 78 7 17 5 100 93 34 53 100 100 100 100 100 100 100 100 15 94 31 5 17 5 4 0 0 0 0 0 0 0 0 0
0 0 0 0 4 15 5 75 5 19 17 100 88 24 4 1 0 1 4 5 1 27 100 93 100 100 100 100 100 100 100 100 100 100 39 61 26 5 1 3 0 0 0 0 1 0 0 0 0
0 0 1 5 5 5 64 100 5 48 1 25 100 100 100 96 4 0 0 0 0 27 100 100 79 6 100 100 98 93 100 24 71 100 100 60 4 0 2 0 0 0 2 0 4 0 0 0 0
0 0 3 4 2 18 65 25 95 6 8 99 100 100 100 7 86 100 30 0 0 4 8 6 34 92 100 100 100 100 100 100 61 5 20 35 4 5 0 0 0 3 0 5 4 0 0 0 0
0 0 65 70 21 5 34 100 100 90 2 9 97 100 100 100 78 87 100 100 14 4 5 5 4 5 5 60 100 100 100 40 10 5 4 8 5 5 1 4 5 5 5 2 0 0 0 0 0
0 4 86 41 21 26 96 100 96 16 0 1 100 100 100 100 68 100 100 94 50 91 87 59 100 96 99 85 36 78 57 99 40 5 5 5 5 28 24 60 28 5 5 2 0 0 0 0 0
5 11 100 100 100 71 100 8 5 0 0 0 51 100 100 100 100 100 98 100 100 100 99 57 67 100 95 84 100 100 78 14 9 4 4 4 44 8 5 5 0 0 0 0 0 0 0 0 0
0 78 100 100 100 23 92 16 2 0 0 0 1 24 100 100 100 100 91 79 100 100 100 100 96 56 12 6 17 81 98 99 81 93 28 98 70 24 0 0 0 0 0 0 0 0 0 0 0
3 5 88 100 100 74 62 50 4 2 0 0 0 0 0 96 100 100 100 100 86 100 100 100 100 100 99 67 29 46 28 5 29 37 9 39 30 4 3 0 0 0 0 0 0 0 0 5 5
5 20 100 100 100 91 82 1 5 43 3 0 0 0 0 0 78 100 100 100 100 100 79 68 100 100 64 42 44 11 11 1 4 5 5 0 3 5 5 4 0 0 0 0 4 4 46 99 30
5 100 100 100 95 9 84 1 5 60 6 0 0 0 5 100 100 100 100 100 100 100 93 24 94 72 93 100 5 2 5 3 13 83 5 5 5 5 5 5 5 5 0 4 5 6 6 99 99
32 91 100 100 93 93 64 4 2 42 4 0 0 0 1 95 100 100 100 100 100 100 98 35 94 44 33 63 74 98 100 36 5 5 5 5 5 5 10 5 65 59 5 98 71 43 6 5 100
99 100 100 100 80 2 0 0 5 0 0 0 0 0 0 90 100 100 100 92 43 100 100 74 76 91 97 40 95 28 74 29 98 16 5 5 18 55 26 93 82 78 37 16 51 77 83 24 94
32 100 100 19 2 2 1 4 2 0 0 0 4 0 0 89 100 100 100 99 26 60 9 6 100 100 98 84 35 4 1 5 79 5 96 5 100 97 67 99 100 100 100 78 88 100 85 100 31
100 100 100 3 0 0 16 98 0 0 0 24 99 27 44 93 100 100 100 100 99 6 29 4 2 13 51 100 99 0 0 4 55 82 100 100 100 100 100 92 71 100 100 100 88 98 100 100 100
98 100 46 0 1 97 100 9 0 0 0 0 71 100 83 100 100 100 100 100 100 38 5 0 25 27 96 89 5 0 0 0 100 100 100 100 100 100 100 78 99 100 100 100 100 100 100 100 92
88 8 0 6 100 99 1 1 5 0 0 0 0 56 97 100 100 100 100 100 100 100 100 71 91 100 4 0 0 0 0 0 78 100 100 94 99 100 100 84 100 100 100 100 100 100 100 100 100
5 5 5 45 100 0 2 3 5 30 2 0 0 95 100 100 100 100 100 100 100 100 100 100 86 74 40 5 9 1 2 0 4 100 100 100 32 91 75 100 100 100 59 75 100 100 100 100 100
12 48 50 78 44 0 20 4 0 0 1 33 0 16 100 100 100 100 100 100 100 100 100 100 100 100 100 100 100 96 45 22 4 2 99 99 96 78 100 100 100 78 43 81 92 100 100 100 100
40 51 50 100 0 4 100 7 0 0 2 2 0 0 42 100 100 100 100 100 100 100 80 100 100 100 99 100 100 100 100 100 98 42 4 90 100 100 100 100 89 44 57 77 34 92 100 100 100
100 97 100 46 2 64 100 25 0 0 0 4 9 38 5 100 100 100 100 18 74 19 10 96 100 100 95 81 100 85 99 99 100 100 100 96 86 84 100 100 100 42 72 99 71 7 85 100 100
100 100 100 58 3 25 99 60 0 0 0 0 0 1 59 4 10 66 51 32 10 16 1 7 57 100 100 100 100 100 100 96 69 55 8 69 96 100 100 100 78 8 2 4 12 27 69 100 100
100 100 100 78 3 16 55 5 0 3 0 0 0 0 0 0 0 0 0 19 24 6 18 20 21 46 17 11 9 1 0 18 33 43 42 35 17 6 35 29 6 38 27 5 5 33 75 91 87
100 100 73 5 5 57 5 1 0 34 0 0 0 0 0 0 0 0 0 12 30 24 17 11 12 29 22 21 9 0 0 1 2 66 38 31 26 26 6 0 1 4 0 2 2 26 100 100 48
100 98 30 87 28 8 4 0 0 1 51 7 1 0 0 0 0 0 0 0 0 1 3 1 14 9 16 2 0 0 0 14 12 0 18 24 24 15 0 0 0 0 12 9 11 1 12 35 74
100 77 100 100 68 0 2 1 5 0 0 0 0 0 0 0 0 0 0 0 0 0 0 0 0 1 21 2 3 0 0 0 11 0 0 10 6 7 0 0 0 32 14 75 5 69 46 22 98
100 100 100 100 77 5 5 2 0 0 0 0 0 0 0 0 0 0 0 0 0 0 0 0 4 1 0 0 8 0 1 0 0 11 12 2 4 7 1 51 2 25 57 13 50 31 100 86 8
100 100 100 91 84 5 5 12 5 0 0 0 5 5 5 5 4 0 0 0 0 0 0 0 0 0 0 6 3 7 12 0 97 79 41 18 34 100 93 33 100 80 34 23 51 13 24 95 82
100 100 79 67 13 100 86 3 4 2 5 48 64 5 48 2 7 84 95 85 48 5 4 0 0 0 0 0 1 13 3 0 100 100 100 100 100 100 100 100 96 80 5 74 13 98 72 93 100